Weather in Zubochistka Vtoraya

Russia / Orenburg Oblast     51°40′02″N   54°11′37″E
temp.,
°C
wind,
m/s
gust,
m/s
humid.,
%
clouds,
%
prec.,
mm/h
press.,
hPa
HPBL,
m
1 march, mon
mon123:00−13w489599 0.5 1011226
02:00−14w359596 0.2 1013134
05:00−14wnw239691 0.3 101470
08:00−15wnw239687 0.1 101792
11:00−14nw349288 0.3 1018262
14:00−12nw459191 0.1 1019357
17:00−12wnw359194 0.1 1020377
20:00−18wnw339682 0.0 102223
2 march, tue
tue223:00−20wnw239856 0.0 102323
02:00−22w239972 0.0 102324
05:00−23wsw239839 0.0 102323
08:00−24sw3410081 0.0 102147
11:00−17ssw599891 0.1 1020305
14:00−12ssw71195100 0.1 1016449
17:00−8sw81494100 0.8 1013721
20:00−5sw81595100 1.0 1010844
3 march, wed
wed323:00−4sw81495100 1.8 1008780
02:00−4sw81496100 1.1 1005688
05:00−3sw71396100 2.1 1004603
08:00−3sw51097100 0.9 1003493
11:00−2wsw579698 1.4 1004455
14:00−1wsw35100100 0.4 1003360
17:000wnw2394100 0.8 1003345
20:00−5nnw3492100 0.1 100461
4 march, thu
thu423:00−9nw339470 0.1 100629
02:00−9wnw349557 0.0 100644
05:00−10wnw349565 0.0 100865
08:00−13wnw459559 0.0 101071
11:00−11w479362 0.0 1012254
14:00−8wsw599152 0.0 1013385
17:00−6wsw7119368 0.1 1013536
20:00−6sw71394100 0.2 1012707
5 march, fri
fri523:00−4sw81593100 0.5 1012852
02:00−3sw101793100 0.3 1009863
05:00−1sw101790100 0.5 1008904
08:00−3sw111890100 0.0 1008763
11:00−2wsw111793100 0.1 1009828
14:00−1wsw91496100 0.7 1010885
17:000wsw81297100 1.4 1012733
20:000wsw61197100 0.9 1013562